Date String (YYYY-MM-DD hh:mm:ss) UTC,Instrument flags,Ambient pressure (hPa),Sample flow (lpm),Bypass flow (lpm),Sample temperature (°C),Ambient temperature (°C),ASC tube jacket temperature (°C),LED temperature (°C),Box temperature (°C),Sample RH (%),Span deviation,Mass concentration (μg/m³),Mass concentration (μg/m³),Mass concentration (μg/m³)
DateTimeUTC,F1_M11,P_M11,Q1_M11,Q2_M11,T1_M11,T2_M11,T3_M11,T4_M11,T5_M11,U1_M11,ZSPAN_M11,X2_M11,X0_M11,X1_M11
2022-05-31 16:00:00,,0826.1,5.00,0.00,25.5,24.6,00.0,34.3,27.5,19.9,0000.0,0002.26,0007.40,0001.71
2022-05-31 16:01:00,,0826.1,5.00,0.00,25.5,24.6,00.0,34.3,27.5,19.9,0000.0,0002.26,0007.89,0001.73
2022-05-31 16:02:00,,0826.1,4.99,0.00,25.5,24.6,00.0,34.3,27.5,20.3,0000.0,0002.30,0007.89,0001.76
2022-05-31 16:03:00,,0826.2,5.01,0.00,25.5,24.7,00.0,34.3,27.5,19.7,0000.0,0002.36,0008.07,0001.80
2022-05-31 16:04:00,,0826.1,5.01,0.00,25.5,24.7,00.0,34.3,27.5,19.7,0000.0,0002.40,0008.11,0001.83
2022-05-31 16:05:00,,0826.1,4.98,0.00,25.5,24.7,00.0,34.4,27.5,19.5,0000.0,0002.40,0007.77,0001.83
2022-05-31 16:06:00,,0826.1,5.01,0.00,25.6,24.7,00.0,34.4,27.6,19.6,0000.0,0002.35,0007.68,0001.83
2022-05-31 16:07:00,,0826.1,4.99,0.00,25.6,24.7,00.0,34.4,27.6,19.7,0000.0,0002.39,0007.71,0001.84
2022-05-31 16:08:00,,0826.1,5.00,0.00,25.6,24.8,00.0,34.4,27.6,19.8,0000.0,0002.38,0007.69,0001.84
2022-05-31 16:09:00,,0826.1,5.01,0.00,25.6,24.8,00.0,34.4,27.6,19.6,0000.0,0002.34,0007.39,0001.82
2022-05-31 16:10:00,,0826.1,5.01,0.00,25.6,24.8,00.0,34.4,27.6,19.5,0000.0,0002.32,0006.34,0001.81
2022-05-31 16:11:00,,0826.1,5.00,0.00,25.6,24.8,00.0,34.4,27.6,19.7,0000.0,0002.27,0005.79,0001.80
2022-05-31 16:12:00,,0826.2,5.01,0.00,25.6,24.8,00.0,34.5,27.6,19.6,0000.0,0002.26,0005.62,0001.79
2022-05-31 16:13:00,,0826.1,5.00,0.00,25.7,24.8,00.0,34.5,27.7,19.9,0000.0,0002.29,0005.63,0001.78
2022-05-31 16:14:00,,0826.1,5.00,0.00,25.7,24.8,00.0,34.5,27.7,19.7,0000.0,0002.25,0005.53,0001.78
2022-05-31 16:15:00,,0826.1,4.99,0.00,25.7,24.9,00.0,34.5,27.7,19.7,0000.0,0002.23,0005.45,0001.76
2022-05-31 16:16:00,,0826.1,5.01,0.00,25.7,24.9,00.0,34.5,27.7,20.4,0000.0,0002.17,0005.36,0001.75
2022-05-31 16:17:00,,0826.1,5.00,0.00,25.7,24.9,00.0,34.5,27.7,20.6,0000.0,0002.11,0005.26,0001.73
2022-05-31 16:18:00,,0826.1,4.99,0.00,25.7,24.9,00.0,34.5,27.7,20.1,0000.0,0002.11,0005.42,0001.72
2022-05-31 16:19:00,,0826.1,5.01,0.00,25.7,24.9,00.0,34.6,27.7,20.4,0000.0,0002.11,0005.51,0001.73
2022-05-31 16:20:00,,0826.1,4.99,0.00,25.8,24.9,00.0,34.6,27.7,20.0,0000.0,0002.17,0005.70,0001.73
2022-05-31 16:21:00,,0826.2,5.01,0.00,25.8,24.9,00.0,34.6,27.8,19.5,0000.0,0002.20,0005.75,0001.74
2022-05-31 16:22:00,,0826.2,5.00,0.00,25.8,25.0,00.0,34.6,27.8,19.6,0000.0,0002.27,0004.93,0001.77
2022-05-31 16:23:00,,0826.2,5.00,0.00,25.8,25.0,00.0,34.6,27.8,19.9,0000.0,0002.29,0003.96,0001.78
2022-05-31 16:24:00,,0826.2,5.00,0.00,25.8,25.0,00.0,34.6,27.8,19.8,0000.0,0002.26,0003.90,0001.79
2022-05-31 16:25:00,,0826.2,5.00,0.00,25.8,25.0,00.0,34.6,27.8,19.4,0000.0,0002.30,0003.92,0001.80
2022-05-31 16:26:00,,0826.1,5.01,0.00,25.8,25.0,00.0,34.6,27.8,20.0,0000.0,0002.33,0003.76,0001.83
2022-05-31 16:27:00,,0826.2,4.99,0.00,25.9,25.0,00.0,34.7,27.9,19.4,0000.0,0002.42,0003.91,0001.88
2022-05-31 16:28:00,,0826.2,5.01,0.00,25.9,25.1,00.0,34.7,27.9,19.6,0000.0,0002.51,0004.02,0001.95
2022-05-31 16:29:00,,0826.2,4.99,0.00,25.9,25.1,00.0,34.7,27.9,19.6,0000.0,0002.53,0003.97,0001.99
2022-05-31 16:30:00,,0826.2,5.00,0.00,25.9,25.1,00.0,34.7,27.9,19.3,0000.0,0002.59,0004.10,0002.01
2022-05-31 16:31:00,,0826.3,4.99,0.00,25.9,25.1,00.0,34.7,27.9,19.8,0000.0,0002.60,0004.03,0002.03
2022-05-31 16:32:00,,0826.3,5.02,0.00,25.9,25.1,00.0,34.7,27.9,20.1,0000.0,0002.57,0004.03,0002.03
2022-05-31 16:33:00,,0826.4,4.99,0.00,26.0,25.1,00.0,34.7,27.9,19.9,0000.0,0002.53,0003.98,0002.02
2022-05-31 16:34:00,,0826.4,5.00,0.00,26.0,25.1,00.0,34.8,27.9,19.5,0000.0,0002.55,0004.16,0002.04
2022-05-31 16:35:00,,0826.4,5.01,0.00,26.0,25.1,00.0,34.8,28.0,19.1,0000.0,0002.64,0004.43,0002.07
2022-05-31 16:36:00,,0826.3,5.00,0.00,26.0,25.2,00.0,34.8,28.0,19.2,0000.0,0002.68,0004.48,0002.10
2022-05-31 16:37:00,,0826.3,5.01,0.00,26.0,25.2,00.0,34.8,28.0,19.1,0000.0,0002.76,0004.83,0002.12
2022-05-31 16:38:00,,0826.3,5.00,0.00,26.0,25.2,00.0,34.8,28.0,19.1,0000.0,0002.80,0004.96,0002.14
2022-05-31 16:39:00,,0826.3,5.01,0.00,26.0,25.2,00.0,34.8,28.0,19.2,0000.0,0002.85,0005.12,0002.14
2022-05-31 16:40:00,,0826.2,4.99,0.00,26.0,25.2,00.0,34.8,28.0,19.2,0000.0,0002.91,0005.44,0002.16
2022-05-31 16:41:00,,0826.2,5.01,0.00,26.0,25.2,00.0,34.9,28.0,19.2,0000.0,0002.94,0005.56,0002.17
2022-05-31 16:42:00,,0826.3,4.98,0.00,26.0,25.2,00.0,34.9,28.0,18.9,0000.0,0002.99,0005.71,0002.20
2022-05-31 16:43:00,,0826.3,5.02,0.00,26.1,25.2,00.0,34.9,28.0,19.0,0000.0,0003.03,0005.83,0002.24
2022-05-31 16:44:00,,0826.2,4.99,0.00,26.1,25.2,00.0,34.9,28.0,18.9,0000.0,0003.12,0006.16,0002.27
2022-05-31 16:45:00,,0826.3,5.01,0.00,26.1,25.2,00.0,34.9,28.1,18.6,0000.0,0003.14,0006.09,0002.31
2022-05-31 16:46:00,,0826.2,5.01,0.00,26.1,25.2,00.0,34.9,28.1,18.5,0000.0,0003.15,0006.08,0002.32
2022-05-31 16:47:00,,0826.2,5.01,0.00,26.1,25.2,00.0,34.9,28.1,18.9,0000.0,0003.16,0006.81,0002.33
2022-05-31 16:48:00,,0826.2,5.00,0.00,26.1,25.3,00.0,34.9,28.1,18.3,0000.0,0003.15,0007.34,0002.34
2022-05-31 16:49:00,,0826.2,4.99,0.00,26.1,25.3,00.0,34.9,28.1,18.7,0000.0,0003.14,0007.47,0002.34
2022-05-31 16:50:00,,0826.2,5.00,0.00,26.1,25.3,00.0,35.0,28.1,18.3,0000.0,0003.11,0007.64,0002.33
2022-05-31 16:51:00,,0826.2,5.00,0.00,26.2,25.3,00.0,35.0,28.1,18.7,0000.0,0003.13,0007.68,0002.33
2022-05-31 16:52:00,,0826.2,5.00,0.00,26.2,25.3,00.0,35.0,28.1,18.4,0000.0,0003.11,0007.56,0002.33
2022-05-31 16:53:00,,0826.2,4.99,0.00,26.2,25.3,00.0,35.0,28.2,18.7,0000.0,0003.12,0007.58,0002.32
2022-05-31 16:54:00,,0826.3,5.01,0.00,26.2,25.4,00.0,35.0,28.2,19.1,0000.0,0003.12,0007.60,0002.28
2022-05-31 16:55:00,,0826.2,5.00,0.00,26.2,25.4,00.0,35.0,28.2,18.6,0000.0,0003.06,0007.47,0002.28
2022-05-31 16:56:00,,0826.2,5.00,0.00,26.2,25.4,00.0,35.0,28.2,18.3,0000.0,0003.07,0007.46,0002.27
2022-05-31 16:57:00,,0826.3,5.00,0.00,26.2,25.4,00.0,35.0,28.2,18.6,0000.0,0003.05,0007.64,0002.25
2022-05-31 16:58:00,,0826.3,4.98,0.00,26.3,25.4,00.0,35.1,28.2,18.7,0000.0,0003.03,0007.46,0002.25
2022-05-31 16:59:00,,0826.3,5.01,0.00,26.3,25.4,00.0,35.1,28.2,19.1,0000.0,0003.06,0006.55,0002.23
